Location: Endfield
(51.6667°N, 0.0667°W)
Time: 14:14:34
(UTC+00:00)

Cosmos 1408 Rocket - Pass Details

Date: 19 May 2024
Orbit: 598 x 626 km, 82.6° (Epoch: 18 June)

Event Time Altitude Azimuth Distance (km) Brightness Sun altitude
Rises 21:16:25 0° 354° (N) 2,919 8.1 -10.2°
Reaches altitude 10° 21:18:46 10° 1° (N) 2,010 7.0 -10.4°
Maximum altitude 21:23:00 43° 73° (ENE) 892 4.2 -10.8°
Enters shadow 21:26:18 16° 140° (SE) 1,652 5.1 -11.1°
